Weather History for Vernon, TX

Change the Weather History Date:

Thursday, August 2, 2012

  Actual Average (KLTS) Record (KLTS)
Temperature  
Mean Temperature 95 °F -  
Max Temperature 112 °F 95 °F 112 °F (2012)
Min Temperature 78 °F 71 °F 66 °F (2000)
Cooling Degree Days 30    
Growing Degree Days 45 (Base 50)    
Moisture  
Dew Point 49 °F    
Average Humidity 21    
Maximum Humidity 40    
Minimum Humidity 11    
Precipitation  
Precipitation 0.00 in - - ()
Sea Level Pressure  
Sea Level Pressure 29.79 in    
Wind  
Wind Speed 11 mph (SSW)    
Max Wind Speed 22 mph    
Max Gust Speed 26 mph    
Visibility 10 miles    
Events      
Averages and records for this station are not official NWS values.
T = Trace of Precipitation, MM = Missing Value Source: NWS Daily Summary

Daily Weather History Graph

Daily Weather History Graph

Search for Another Location

Airport:

Trip Planner

Search our weather history database for the weather conditions in past years. The results will help you decide how hot, cold, wet, or windy it might be!

Date:

Astronomy

Aug. 02, 2012 Rise Set
Actual Time 6:49 AM CDT 8:36 PM CDT
Civil Twilight 6:21 AM CDT 9:04 PM CDT
Nautical Twilight 5:48 AM CDT 9:37 PM CDT
Astronomical Twilight 5:13 AM CDT 10:12 PM CDT
Moon 8:50 PM CDT (8/2) 7:23 AM CDT (8/2)
Length of Visible Light 14h 42m
Length of Day
13h 47m
Full, 100% of the Moon is Illuminated
Aug 2
Full
Aug 9
Last Quarter
Aug 17
New
Aug 24
First Quarter
Aug 31
Full

Hourly Weather History & Observations

Time (CDT) Temp. Heat Index Dew Point Humidity Pressure Visibility Wind Dir Wind Speed Gust Speed Precip Events Conditions
12:15 AM 95.0 °F - 52.7 °F 24% 29.82 in 10.0 mi South 12.7 mph - N/A   Clear
12:35 AM 94.3 °F 91.8 °F 53.1 °F 25% 29.82 in 10.0 mi South 15.0 mph - N/A   Clear
12:55 AM 93.7 °F 91.2 °F 53.2 °F 25% 29.81 in 10.0 mi South 13.8 mph - N/A   Clear
1:15 AM 93.0 °F 90.6 °F 53.2 °F 26% 29.81 in 10.0 mi South 13.8 mph - N/A   Clear
1:35 AM 92.7 °F 90.1 °F 53.1 °F 26% 29.81 in 10.0 mi South 12.7 mph - N/A   Clear
1:55 AM 92.1 °F - 52.9 °F 26% 29.81 in 10.0 mi South 12.7 mph - N/A   Clear
2:15 AM 91.4 °F 88.9 °F 53.1 °F 27% 29.81 in 10.0 mi South 13.8 mph - N/A   Clear
2:35 AM 90.7 °F 88.3 °F 53.1 °F 28% 29.81 in 10.0 mi South 13.8 mph - N/A   Clear
2:55 AM 90.5 °F - 52.9 °F 28% 29.82 in 10.0 mi SSW 11.5 mph - N/A   Clear
3:15 AM 89.6 °F - 52.7 °F 28% 29.82 in 10.0 mi SSW 10.4 mph - N/A   Clear
3:35 AM 88.2 °F - 52.7 °F 30% 29.81 in 10.0 mi South 9.2 mph - N/A   Clear
4:15 AM 86.2 °F - 52.7 °F 32% 29.81 in 10.0 mi Calm Calm - N/A   Clear
4:35 AM 84.9 °F - 52.7 °F 33% 29.80 in 10.0 mi Calm Calm - N/A   Clear
4:55 AM 84.0 °F - 52.7 °F 34% 29.81 in 10.0 mi Calm Calm - N/A   Clear
5:15 AM 84.0 °F - 52.3 °F 33% 29.81 in 10.0 mi SSW 3.5 mph - N/A   Clear
5:35 AM 84.9 °F - 52.0 °F 32% 29.81 in 10.0 mi SSW 10.4 mph - N/A   Clear
5:55 AM 85.3 °F - 51.6 °F 31% 29.81 in 10.0 mi SSW 9.2 mph - N/A   Clear
6:15 AM 83.7 °F - 51.4 °F 33% 29.81 in 10.0 mi Calm Calm - N/A   Clear
6:35 AM 81.1 °F - 51.8 °F 36% 29.82 in 10.0 mi Calm Calm - N/A   Clear
6:55 AM 78.8 °F - 52.0 °F 39% 29.83 in 10.0 mi Calm Calm - N/A   Clear
7:15 AM 78.6 °F - 52.2 °F 40% 29.83 in 10.0 mi Calm Calm - N/A   Clear
7:35 AM 80.1 °F - 52.2 °F 38% 29.83 in 10.0 mi Calm Calm - N/A   Clear
7:55 AM 82.0 °F - 52.0 °F 35% 29.83 in 10.0 mi Calm Calm - N/A   Clear
8:15 AM 83.8 °F - 51.6 °F 33% 29.84 in 10.0 mi SW 9.2 mph - N/A   Clear
8:35 AM 86.2 °F - 51.3 °F 30% 29.85 in 10.0 mi WSW 6.9 mph - N/A   Clear
9:15 AM 90.3 °F - 50.5 °F 26% 29.85 in 10.0 mi Calm Calm - N/A   Clear
9:35 AM 93.4 °F - 50.0 °F 23% 29.85 in 10.0 mi WSW 15.0 mph - N/A   Clear
9:55 AM 95.9 °F - 49.6 °F 21% 29.85 in 10.0 mi WSW 13.8 mph - N/A   Clear
10:15 AM 97.7 °F - 49.6 °F 20% 29.84 in 10.0 mi WSW 18.4 mph - N/A   Clear
10:35 AM - - - N/A% 29.84 in 10.0 mi West 12.7 mph - N/A   Unknown
11:15 AM 102.0 °F - 48.9 °F 17% 29.84 in 10.0 mi WSW 12.7 mph 18.4 mph N/A   Clear
11:35 AM 103.3 °F - 48.6 °F 16% 29.84 in 10.0 mi SW 11.5 mph - N/A   Clear
11:55 AM 103.8 °F - 47.7 °F 15% 29.84 in 10.0 mi West 11.5 mph 19.6 mph N/A   Clear
12:15 PM 104.9 °F - 47.7 °F 15% 29.83 in 10.0 mi WSW 10.4 mph - N/A   Clear
12:35 PM 106.0 °F - 47.8 °F 14% 29.82 in 10.0 mi SSW 8.1 mph 16.1 mph N/A   Clear
12:55 PM 106.9 °F - 48.0 °F 14% 29.82 in 10.0 mi South 3.5 mph - N/A   Clear
1:15 PM 108.5 °F - 48.2 °F 13% 29.81 in 10.0 mi SW 11.5 mph 16.1 mph N/A   Clear
1:35 PM 108.7 °F - 47.7 °F 13% 29.81 in 10.0 mi South 12.7 mph 24.2 mph N/A   Clear
1:55 PM 109.6 °F - 47.3 °F 13% 29.80 in 10.0 mi South 9.2 mph 18.4 mph N/A   Clear
2:35 PM 110.5 °F - 46.4 °F 12% 29.79 in 10.0 mi SSW 16.1 mph 19.6 mph N/A   Clear
2:55 PM 110.8 °F - 46.0 °F 11% 29.78 in 10.0 mi SW 10.4 mph 25.3 mph N/A   Clear
3:15 PM 111.0 °F - 45.3 °F 11% 29.78 in 10.0 mi SSW 16.1 mph 21.9 mph N/A   Clear
3:55 PM 111.6 °F - 46.6 °F 11% 29.76 in 10.0 mi South 15.0 mph 24.2 mph N/A   Clear
4:15 PM 111.7 °F - 46.9 °F 12% 29.76 in 10.0 mi SSW 21.9 mph 25.3 mph N/A   Clear
4:35 PM 111.9 °F - 46.8 °F 11% 29.75 in 10.0 mi SW 8.1 mph 21.9 mph N/A   Clear
4:55 PM 112.3 °F - 46.4 °F 11% 29.74 in 10.0 mi SSW 13.8 mph 26.5 mph N/A   Clear
5:15 PM 112.5 °F - 45.9 °F 11% 29.73 in 10.0 mi South 13.8 mph 23.0 mph N/A   Clear
5:35 PM 112.3 °F - 45.5 °F 11% 29.73 in 10.0 mi South 19.6 mph 23.0 mph N/A   Clear
5:55 PM 111.9 °F - 46.2 °F 11% 29.72 in 10.0 mi South 15.0 mph 24.2 mph N/A   Clear
6:15 PM 111.6 °F - 46.4 °F 11% 29.72 in 10.0 mi South 17.3 mph - N/A   Clear
6:35 PM 111.4 °F - 46.2 °F 11% 29.72 in 10.0 mi South 18.4 mph 25.3 mph N/A   Clear
6:55 PM 111.2 °F - 45.1 °F 11% 29.71 in 10.0 mi SSW 16.1 mph 20.7 mph N/A   Clear
7:15 PM 110.7 °F - 45.3 °F 11% 29.71 in 10.0 mi SSW 15.0 mph - N/A   Clear
7:35 PM 109.9 °F - 45.7 °F 12% 29.71 in 10.0 mi SSW 16.1 mph - N/A   Clear
7:55 PM 108.7 °F - 45.3 °F 12% 29.71 in 10.0 mi SSW 13.8 mph - N/A   Clear
8:15 PM 107.2 °F - 44.6 °F 12% 29.71 in 10.0 mi SSW 12.7 mph - N/A   Clear
8:35 PM 104.9 °F - 43.9 °F 13% 29.71 in 10.0 mi South 8.1 mph - N/A   Clear
8:55 PM - - - N/A% 29.71 in 10.0 mi South 8.1 mph - N/A   Unknown
9:15 PM 99.5 °F - 43.7 °F 15% 29.72 in 10.0 mi South 8.1 mph - N/A   Clear
9:35 PM 98.1 °F - 44.6 °F 16% 29.72 in 10.0 mi South 9.2 mph - N/A   Clear
9:55 PM 96.8 °F - 44.6 °F 17% 29.73 in 10.0 mi SSE 9.2 mph - N/A   Clear
10:15 PM 94.8 °F - 44.8 °F 18% 29.74 in 10.0 mi SSE 8.1 mph - N/A   Clear
10:35 PM 93.0 °F - 45.3 °F 19% 29.74 in 10.0 mi SSE 9.2 mph - N/A   Clear
10:55 PM 92.7 °F - 46.6 °F 20% 29.74 in 10.0 mi SSE 10.4 mph - N/A   Clear
11:35 PM 94.3 °F - 48.2 °F 21% 29.75 in 10.0 mi SSE 12.7 mph - N/A   Clear
11:55 PM 93.2 °F - 48.4 °F 22% 29.75 in 10.0 mi SSE 11.5 mph - N/A   Clear